Regional Weather Roundup
Issued by NWS

Home | Current Version | Previous Version | Text Only | Print | Product List | Glossary On
Versions: 1 2 3 4 5 6 7 8 9 10 11 12 13 14 15 16 17 18 19 20 21 22 23 24 25 26 27 28 29 30 31 32 33 34 35 36 37 38 39 40 41 42 43 44 45 46 47 48 49 50
597
ASUS43 KLSX 081607
RWRMO

WEATHER SUMMARY FOR MISSOURI
NATIONAL WEATHER SERVICE SPRINGFIELD MO
1000 AM CST MON FEB 08 2016

NOTE: "FAIR" INDICATES FEW OR NO CLOUDS BELOW 12,000 FEET WITH NO
       SIGNIFICANT WEATHER AND/OR OBSTRUCTIONS TO VISIBILITY.
       CURRENT SKY AND/OR WEATHER CONDITIONS ARE NOT AVAILABLE FOR
       CHILLICOTHE AND FARMINGTON.

MOZ001>031-035>038-043-044-053-054-081700-
...NORTHERN AND WESTERN MISSOURI...

CITY           SKY/WX    TMP DP  RH WIND       PRES   REMARKS
KANSAS CTY INT FLURRIES  30  18  60 N20G30    30.04R WCI  17
KANSAS C DTWN  CLOUDY    32  17  54 N15G35    30.05R WCI  22
LEE`S SUMMIT   CLOUDY    30  16  56 NW25G39   30.04R WCI  16
ST JOSEPH      LGT SNOW  29  20  69 N25G36    30.07R WCI  14
CHILLICOTHE      N/A     25  16  68 NW20G28   30.00R WCI  11
KIRKSVILLE     LGT SNOW  20  11  68 NW20G31   29.92R WCI   4

$$
MOZ066>068-077>081-088>096-101>105-081700-
...SOUTHWEST MISSOURI...

CITY           SKY/WX    TMP DP  RH WIND       PRES   REMARKS
SPRINGFIELD    CLOUDY    34  20  56 NW20G32   29.99R WCI  23
JOPLIN         CLOUDY    37  21  52 NW24G32   30.08R WCI  26

$$
MOZ032>034-039>042-045>050-055>058-069>072-081700-
...CENTRAL MISSOURI...

CITY           SKY/WX    TMP DP  RH WIND       PRES   REMARKS
COLUMBIA       CLOUDY    27  15  61 NW25G36   29.92R WCI  12
JEFFERSON CITY CLOUDY    28  15  58 NW22G30   29.95R WCI  14
ROLLA          CLOUDY    27  16  63 NW16G30   29.89R WCI  15
SEDALIA        CLOUDY    30  18  60 NW23G38   30.00R WCI  17
WARRENSBURG    FLURRIES  30  21  69 NW18G26   30.03R WCI  18
OSAGE BEACH    CLOUDY    30  18  59 NW14G25   29.96S WCI  20

$$
MOZ051-052-059>065-081700-
...EAST CENTRAL MISSOURI...

CITY           SKY/WX    TMP DP  RH WIND       PRES   REMARKS
ST LOUIS INTL  CLOUDY    29  17  61 NW17G26   29.87R WCI  17
SPIRIT OF STL  CLOUDY    30  18  60 NW13G22   29.88R WCI  20
ST CHARLES     PTSUNNY   29  16  58 NW17G28   29.86R WCI  17

$$
MOZ072>076-082>087-097>100-106>115-081700-
...SOUTH CENTRAL AND SOUTHEAST MISSOURI...

CITY           SKY/WX    TMP DP  RH WIND       PRES   REMARKS
CAPE GIRARDEAU LGT SNOW  33  27  78 NW22G29   29.87R WCI  21
FARMINGTON     MIX PCPN  30  20  66 NW16G30   29.86S WCI  19
POPLAR BLUFF   CLOUDY    37  21  52 NW22G35   29.90R WCI  26
WEST PLAINS    CLOUDY    36  20  52 W18G36    29.92R WCI  26

$$



USA.gov is the U.S. government's official web portal to all federal, state and local government web resources and services.